EHI
0 0 0 0 0 0 0 0 0 0 0 0 0 0 0 0 0 0 2 8 16 21 21 18 15 12 11 11 10 9 9 8 6 5 4 3 1 1 1 1 0 0 0
0 0 0 0 0 0 0 0 0 0 0 0 0 0 0 0 0 0 1 5 12 19 20 19 16 14 13 13 11 8 7 7 6 5 4 3 2 1 1 1 0 0 0
0 0 0 0 0 0 0 0 0 0 0 0 0 0 0 0 0 0 0 1 5 11 16 18 18 17 17 16 13 8 7 7 7 6 5 3 3 2 1 1 0 0 0
0 0 0 0 0 0 0 0 0 0 0 0 0 0 0 0 0 0 0 1 2 4 8 13 17 19 18 18 15 10 8 9 9 8 6 4 3 2 1 0 0 0 0
0 0 0 0 0 0 0 0 0 0 0 1 1 0 0 0 0 0 0 1 2 2 3 6 12 15 17 17 15 13 12 10 10 9 7 4 2 1 0 0 0 0 0
0 0 0 0 0 1 1 0 0 0 0 1 1 0 0 0 0 0 0 1 2 2 2 3 5 9 12 15 15 14 14 11 9 9 7 4 2 1 0 0 0 0 0
1 1 0 0 1 2 2 1 0 0 0 1 1 0 0 0 0 0 0 0 1 1 1 2 2 3 6 10 12 13 14 11 8 7 6 4 3 2 1 0 0 0 0
3 2 1 1 2 3 3 1 0 0 0 0 0 0 0 0 0 0 0 0 0 0 0 1 1 1 3 4 5 9 13 11 7 5 4 3 2 2 1 1 0 0 0
4 3 3 3 3 4 4 3 2 1 1 0 0 0 0 0 1 1 0 0 0 0 0 0 1 2 2 1 2 5 8 9 8 6 5 4 2 1 2 1 0 0 0
5 4 3 3 3 4 4 4 4 4 3 2 1 0 0 0 1 1 0 0 0 0 0 0 1 2 2 1 2 3 4 6 9 9 7 6 4 2 2 1 0 0 0
6 4 3 3 4 4 5 5 4 4 4 3 2 1 1 1 1 1 0 0 0 0 0 0 0 1 1 1 1 2 3 4 6 7 7 7 5 3 2 1 0 0 0
5 4 3 4 4 5 5 5 4 3 3 3 3 3 4 3 1 0 0 0 0 0 0 0 0 0 0 0 0 1 2 3 3 3 3 4 4 3 2 1 0 0 0
5 5 4 4 3 3 3 4 4 4 3 3 3 3 4 4 2 1 1 1 1 0 0 0 0 0 0 0 0 0 1 1 1 0 0 1 1 1 1 0 0 0 0
7 6 5 4 3 2 2 3 4 4 4 4 3 3 4 3 2 2 2 2 2 1 0 0 0 0 0 0 0 0 0 0 0 0 0 0 0 0 0 0 0 0 0
8 7 5 5 4 3 2 3 4 4 4 3 3 3 3 3 2 3 3 3 3 3 2 1 1 1 0 0 0 0 0 0 0 0 0 0 0 0 0 0 0 0 0
9 9 7 6 5 4 2 1 2 3 3 3 3 3 4 3 3 4 4 4 4 6 5 2 2 2 1 1 0 0 0 0 0 0 0 0 0 1 0 0 0 0 0
13 12 11 8 6 4 3 2 3 3 3 3 3 4 5 5 4 5 5 5 7 9 8 6 4 4 3 3 1 0 0 1 0 0 0 0 0 0 0 0 0 0 0
16 16 14 11 8 6 6 6 5 4 3 3 4 6 7 6 6 6 7 8 10 11 11 9 7 6 6 5 2 0 0 0 0 0 0 0 0 0 0 0 0 0 0
19 19 16 13 11 10 10 9 7 4 4 4 4 6 8 9 9 9 10 11 12 12 12 11 8 7 6 4 2 0 0 0 0 0 0 0 0 0 0 0 0 0 0
21 20 18 15 14 13 13 12 9 6 6 5 5 6 9 11 12 13 13 13 13 12 11 9 8 6 5 3 2 1 1 0 0 0 0 0 0 0 0 0 0 0 0
22 20 19 18 17 15 14 13 10 8 8 7 5 5 7 10 12 13 12 13 12 11 10 8 7 6 4 3 3 2 2 1 1 0 0 0 0 0 0 0 0 0 0
21 20 19 19 18 16 13 11 9 8 8 6 4 3 4 6 9 10 8 8 9 10 10 9 8 7 6 4 3 3 3 3 2 1 0 0 0 0 0 0 0 0 0
19 18 17 17 17 16 13 10 8 8 7 5 4 4 4 5 7 8 6 5 6 8 10 10 9 9 8 6 4 3 3 3 2 1 0 0 0 0 0 0 0 0 0
17 15 14 15 17 16 14 9 8 8 8 6 4 6 8 9 9 9 8 6 6 8 9 9 9 9 9 7 5 4 3 3 3 1 0 0 0 0 0 0 0 0 0
16 15 14 14 15 16 14 9 7 9 9 7 6 6 9 10 10 10 9 8 8 9 9 8 7 7 6 6 6 5 5 5 5 3 1 0 0 0 0 0 0 0 0
16 16 15 14 15 15 13 9 7 10 10 8 6 6 8 8 8 8 9 9 9 9 9 8 6 5 4 3 4 6 8 8 7 5 2 1 0 0 0 0 0 0 0
Wind_Speed
2 1 1 0 1 1 1 1 1 1 1 1 2 2 3 3 3 3 2 8 10 10 9 9 9 9 9 9 8 8 8 8 8 8 8 9 9 9 9 9 9 9 8
2 1 1 0 0 1 1 1 1 1 1 1 1 2 2 3 3 3 3 5 8 9 9 9 8 8 8 8 8 8 8 8 7 7 8 8 8 9 9 9 9 8 8
2 2 1 1 0 0 0 0 0 1 1 1 1 1 1 2 3 3 3 2 3 6 8 8 7 7 7 7 7 8 8 8 8 8 8 8 8 8 8 9 9 8 7
3 2 1 0 0 0 1 1 1 1 1 1 1 1 1 1 2 3 3 3 2 2 4 6 7 7 7 7 7 6 7 7 7 7 7 8 8 8 8 8 8 8 8
2 2 1 0 1 1 1 0 1 1 1 0 0 0 0 1 1 2 2 3 3 3 2 4 6 6 7 7 6 6 6 7 6 6 7 8 8 8 9 8 8 8 8
2 2 1 0 1 1 1 1 1 1 1 0 1 1 1 0 1 1 2 2 2 3 3 2 2 4 6 6 6 7 7 7 6 6 6 7 8 8 8 9 8 8 8
2 2 1 1 1 1 1 1 1 1 1 1 2 2 2 1 0 1 1 1 2 2 2 2 2 2 2 5 5 6 6 7 6 6 6 6 7 7 8 9 9 8 8
2 2 2 1 1 1 1 1 1 1 0 1 2 1 1 3 2 1 1 0 1 1 1 2 1 1 1 1 2 4 5 5 5 5 5 5 5 7 8 9 9 8 8
3 2 2 2 2 2 1 1 1 2 0 1 1 3 2 2 1 2 2 1 1 1 0 0 1 0 1 1 1 2 4 3 3 3 4 4 5 6 7 8 8 7 7
2 2 2 2 2 1 1 1 1 1 2 0 1 0 2 3 2 1 2 2 1 1 0 0 0 0 1 1 1 2 3 3 4 4 4 3 3 6 7 8 8 8 7
2 2 2 2 2 1 1 1 0 1 1 1 1 0 0 1 1 2 1 2 2 1 1 0 0 0 0 1 1 1 2 3 3 3 3 3 3 4 5 7 7 7 7
1 2 2 2 2 1 1 1 1 1 1 1 1 1 2 2 2 2 2 1 1 2 1 1 0 0 0 0 1 1 3 2 3 3 3 3 3 4 5 5 6 7 7
2 2 2 2 2 2 2 2 1 1 1 1 1 1 1 2 2 2 2 1 1 1 1 1 1 0 0 0 0 2 2 3 3 2 2 2 2 3 4 5 5 5 6
3 3 3 3 3 2 2 1 1 1 1 1 1 1 1 2 2 3 3 3 1 1 1 2 1 1 0 0 0 2 2 4 4 4 3 2 2 1 2 3 4 4 5
3 3 3 3 3 2 2 2 1 1 1 1 1 1 1 2 1 2 2 3 4 2 2 2 1 1 1 1 1 1 2 3 4 3 3 2 2 2 2 2 3 3 3
2 2 2 2 2 2 2 2 1 1 1 1 1 1 1 1 1 1 2 2 2 3 2 2 2 1 1 1 2 2 2 4 3 3 3 2 2 2 2 3 3 4 4
3 3 3 3 3 2 2 2 2 2 2 2 2 2 2 2 1 1 1 1 2 2 2 2 1 1 1 1 1 1 1 1 1 3 3 2 2 2 3 3 3 4 5
3 4 3 3 3 3 2 3 3 2 2 2 2 2 2 1 1 1 1 1 2 2 3 2 1 1 1 2 2 2 1 2 1 2 3 2 2 2 3 3 3 4 4
4 4 3 3 3 3 3 3 3 3 3 3 2 2 2 2 2 2 2 1 1 2 2 3 2 1 1 1 1 1 1 0 2 2 3 3 3 3 3 4 4 4 5
4 4 4 4 4 3 3 3 3 2 2 2 2 3 3 3 3 3 2 2 2 2 2 2 2 1 1 1 1 1 1 1 2 2 2 2 3 4 4 4 5 5 5
5 4 4 3 3 3 3 3 3 3 3 2 2 3 3 3 4 3 2 2 3 2 2 2 2 1 1 1 2 2 2 1 2 2 1 1 1 2 3 4 5 6 6
4 4 4 4 3 3 3 5 4 3 3 3 2 2 2 2 3 3 4 5 5 5 4 3 2 3 3 3 2 3 2 1 2 2 2 2 2 2 3 3 5 6 7
4 3 4 3 3 4 4 4 5 3 2 2 2 2 2 1 2 2 3 3 4 5 7 5 5 5 4 4 4 3 3 3 4 2 2 2 2 3 3 4 7 8 8
3 3 3 3 3 3 4 4 5 3 2 2 2 2 2 2 2 2 2 2 2 3 5 5 5 6 5 5 6 5 5 3 2 1 3 3 2 3 3 3 6 9 9
3 3 3 4 3 3 4 4 5 2 2 2 2 2 2 2 2 3 2 2 2 3 4 5 5 5 6 6 5 3 2 2 2 2 2 3 2 2 2 3 5 9 10
4 3 3 3 3 3 3 4 5 2 2 2 2 2 3 3 2 3 3 2 3 4 3 2 2 3 4 4 6 5 5 4 2 3 3 3 2 2 2 2 2 3 5
Wind_Direction
135 142 135 124 201 193 182 203 202 199 185 167 177 176 175 174 177 174 186 187 188 188 190 193 194 200 204 206 206 208 209 206 207 208 214 214 211 209 206 202 206 207 203
132 128 122 102 252 230 203 187 171 150 149 145 161 171 183 178 178 180 184 192 190 191 195 201 202 203 207 211 213 214 210 209 207 207 208 208 207 206 206 204 209 204 199
130 131 123 114 270 267 165 83 67 81 118 121 143 180 180 184 181 179 180 186 198 198 196 200 205 209 210 211 213 210 209 212 214 212 212 210 208 204 199 199 201 200 201
128 118 111 128 188 42 54 95 74 72 71 114 159 211 200 193 193 187 178 183 193 198 201 206 212 217 214 213 211 209 206 211 217 214 213 210 205 201 195 193 195 195 197
119 120 115 125 121 81 47 91 75 99 92 82 195 229 256 209 208 186 181 189 194 190 194 207 215 221 221 220 218 213 207 207 212 213 212 206 201 199 197 194 191 193 195
128 122 112 90 95 89 51 57 78 64 108 150 81 27 334 286 228 210 203 189 190 194 195 210 222 230 227 228 226 219 211 207 208 207 209 207 202 199 196 194 194 195 195
141 130 132 100 113 120 141 112 91 67 37 75 73 28 2 357 301 252 224 177 181 193 186 198 214 226 232 226 228 218 212 211 210 211 211 206 202 197 193 192 191 190 190
152 158 161 163 148 127 91 88 92 95 21 102 118 100 15 352 348 356 351 158 157 154 165 187 190 191 217 225 212 203 206 207 206 207 209 205 205 198 192 191 187 185 186
170 171 175 157 149 153 170 195 151 133 164 288 142 143 147 218 308 341 2 34 45 70 90 65 100 169 178 167 215 206 196 195 195 203 200 197 197 190 187 186 184 184 184
182 178 169 156 159 161 177 222 177 153 144 228 293 192 171 167 163 307 335 346 5 30 299 133 67 108 136 137 153 150 189 187 195 199 192 184 189 186 180 184 186 188 189
199 186 177 158 163 170 183 210 193 169 169 177 200 210 100 89 151 158 261 312 343 338 332 283 356 71 103 118 173 165 174 181 184 180 167 167 176 175 180 189 193 196 195
227 214 188 184 185 186 201 208 207 198 207 198 197 192 182 175 189 163 195 252 284 301 323 353 19 356 30 35 190 141 169 170 158 161 165 170 180 187 189 194 199 201 203
216 226 208 203 202 205 205 196 197 221 214 211 211 208 204 201 179 163 163 202 243 274 315 326 299 229 103 36 225 152 157 145 141 142 149 166 185 199 205 211 206 202 203
207 209 208 209 210 205 201 191 196 231 216 220 225 211 206 218 186 174 176 166 180 291 290 272 303 231 205 160 141 139 132 132 126 124 124 131 139 165 195 209 203 202 200
199 203 205 202 205 201 197 190 199 237 214 226 231 226 226 240 215 196 184 174 166 189 250 252 252 250 210 136 142 146 149 147 141 134 135 141 149 170 179 186 180 180 175
196 185 204 205 206 207 201 192 207 229 212 242 235 232 248 247 234 196 185 184 170 166 198 238 231 238 208 171 162 155 164 156 159 157 162 168 178 180 168 167 173 174 172
194 196 203 203 208 211 204 191 212 218 219 253 257 231 247 248 228 208 185 174 173 153 177 249 251 226 169 175 160 166 169 178 184 182 179 182 191 176 170 171 175 182 181
197 200 199 197 204 208 202 191 211 222 216 230 246 245 257 255 241 220 191 190 188 176 167 198 241 222 202 190 168 177 183 184 195 198 198 195 193 194 198 193 190 189 186
194 195 190 194 205 211 206 203 209 223 218 221 222 226 240 225 241 227 197 192 196 183 161 168 201 213 216 163 123 182 196 236 218 202 202 208 206 211 208 205 200 193 186
195 198 197 201 205 208 208 208 207 218 225 227 226 223 224 217 224 217 203 196 179 164 153 156 172 194 208 168 135 178 243 254 245 222 213 212 220 221 218 210 206 199 191
206 202 201 212 212 210 219 211 208 214 213 228 239 234 228 219 214 208 196 189 172 169 167 170 184 188 200 178 198 197 209 230 259 229 211 242 232 240 237 229 221 210 198
205 196 202 209 217 232 228 209 201 214 213 216 235 246 244 233 220 211 195 182 176 176 185 189 200 201 219 211 193 185 184 181 258 240 188 240 204 233 242 235 227 214 205
195 200 211 206 220 234 223 212 202 194 203 212 225 230 248 255 227 216 200 197 202 201 192 186 194 213 212 206 188 196 198 198 219 210 163 235 227 237 242 237 225 215 212
198 205 208 216 226 241 225 217 199 188 200 215 222 220 225 244 223 187 189 199 221 227 216 205 207 218 216 203 193 195 200 207 237 224 163 211 228 234 243 239 228 217 216
197 203 203 212 218 250 230 207 185 187 210 234 235 225 216 230 218 180 165 200 253 266 242 217 218 224 217 206 187 157 160 165 236 243 194 193 227 237 243 241 232 218 217
202 198 203 209 213 236 237 206 184 183 212 246 257 241 224 219 212 183 183 198 238 257 253 249 247 250 233 216 200 193 190 194 206 235 211 188 209 185 258 259 239 220 217